This is the latest recevied weather packets stored in our database for station/object DO1SN-13. If no packets are shown the sender has not sent any weather packets the latest 10 day(s).
| Time | Temp. | Humidity | Pressure | Rain* | Wind** | Luminosity | Snow |
|---|---|---|---|---|---|---|---|
| 1787704252 | 17.78° C | - | 1018.2 hPa | 0 mm | - | - | - |
| 1787703888 | 17.78° C | - | 1018.2 hPa | 0 mm | - | - | - |
| 1787703524 | 17.22° C | - | 1018.2 hPa | 0 mm | - | - | - |
| 1787703160 | 17.22° C | - | 1018.2 hPa | 0 mm | - | - | - |
| 1787702796 | 18.89° C | - | 1018.3 hPa | 0 mm | - | - | - |
| 1787702431 | 18.33° C | - | 1018.3 hPa | 0 mm | - | - | - |
| 1787702067 | 18.89° C | - | 1018.4 hPa | 0 mm | - | - | - |
| 1787701703 | 18.33° C | - | 1018.3 hPa | 0 mm | - | - | - |
| 1787701339 | 18.89° C | - | 1018.3 hPa | 0 mm | - | - | - |
| 1787700975 | 18.33° C | - | 1018.3 hPa | 0 mm | - | - | - |
| 1787700611 | 17.78° C | - | 1018.2 hPa | 0 mm | - | - | - |
| 1787700247 | 18.89° C | - | 1018.4 hPa | 0 mm | - | - | - |
| 1787699882 | 18.33° C | - | 1018.3 hPa | 0 mm | - | - | - |
| 1787699518 | 17.22° C | - | 1018.3 hPa | 0 mm | - | - | - |
| 1787699154 | 18.33° C | - | 1018.4 hPa | 0 mm | - | - | - |
| 1787698790 | 18.89° C | - | 1018.3 hPa | 0 mm | - | - | - |
| 1787698426 | 18.33° C | - | 1018.3 hPa | 0 mm | - | - | - |
| 1787698062 | 18.89° C | - | 1018.2 hPa | 0 mm | - | - | - |
| 1787697697 | 18.89° C | - | 1018.2 hPa | 0 mm | - | - | - |
| 1787697333 | 18.33° C | - | 1018.2 hPa | 0 mm | - | - | - |
| 1787696969 | 18.89° C | - | 1018.2 hPa | 0 mm | - | - | - |
| 1787696605 | 18.89° C | - | 1018.3 hPa | 0 mm | - | - | - |
| 1787696241 | 18.89° C | - | 1018.4 hPa | 0 mm | - | - | - |
| 1787695877 | 17.78° C | - | 1018.5 hPa | 0 mm | - | - | - |
| 1787695512 | 18.89° C | - | 1018.5 hPa | 0 mm | - | - | - |
* Rain latest hour (hover to see other rain measurements)
** Current wind speed in m/s (hover to see current wind gust speed)